TimeEDT,TemperatureF,Dew PointF,Humidity,Sea Level PressureIn,VisibilityMPH,Wind Direction,Wind SpeedMPH,Gust SpeedMPH,PrecipitationIn,Events,Conditions,WindDirDegrees,DateUTC
12:53 AM,50.0,37.0,61,30.20,10.0,NNW,8.1,-,N/A,,Overcast,330,2013-03-30 04:53:00
1:53 AM,48.9,39.0,69,30.18,10.0,NE,3.5,-,N/A,,Overcast,50,2013-03-30 05:53:00
2:53 AM,48.9,39.0,69,30.17,10.0,NE,3.5,-,N/A,,Overcast,40,2013-03-30 06:53:00
3:53 AM,46.9,39.9,77,30.16,10.0,NE,3.5,-,N/A,,Mostly Cloudy,40,2013-03-30 07:53:00
4:53 AM,46.0,39.9,79,30.16,10.0,Calm,Calm,-,N/A,,Mostly Cloudy,0,2013-03-30 08:53:00
5:53 AM,43.0,39.0,86,30.15,10.0,Calm,Calm,-,N/A,,Scattered Clouds,0,2013-03-30 09:53:00
6:53 AM,43.0,39.9,89,30.17,10.0,Calm,Calm,-,N/A,,Overcast,0,2013-03-30 10:53:00
7:53 AM,44.1,41.0,89,30.18,10.0,Calm,Calm,-,N/A,,Overcast,0,2013-03-30 11:53:00
8:53 AM,46.0,42.1,86,30.18,9.0,Calm,Calm,-,N/A,,Mostly Cloudy,0,2013-03-30 12:53:00
9:53 AM,48.9,43.0,80,30.19,10.0,NNE,3.5,-,N/A,,Scattered Clouds,30,2013-03-30 13:53:00
10:53 AM,54.0,43.0,66,30.17,10.0,Variable,3.5,-,N/A,,Scattered Clouds,0,2013-03-30 14:53:00
11:53 AM,59.0,39.9,49,30.16,10.0,SE,3.5,-,N/A,,Overcast,130,2013-03-30 15:53:00
12:53 PM,64.0,41.0,43,30.13,10.0,SSE,5.8,-,N/A,,Clear,150,2013-03-30 16:53:00
1:54 PM,66.0,43.0,43,30.10,10.0,South,5.8,-,N/A,,Unknown,180,2013-03-30 17:54:00
2:53 PM,69.1,46.0,44,30.06,10.0,Variable,5.8,-,N/A,,Partly Cloudy,0,2013-03-30 18:53:00
3:53 PM,70.0,46.9,44,30.04,10.0,Variable,4.6,-,N/A,,Partly Cloudy,0,2013-03-30 19:53:00
4:53 PM,71.1,46.9,42,30.01,10.0,WNW,6.9,-,N/A,,Mostly Cloudy,290,2013-03-30 20:53:00
5:53 PM,62.1,52.0,70,30.03,10.0,West,10.4,24.2,0.00,Rain,Light Rain,280,2013-03-30 21:53:00
6:53 PM,57.9,55.0,90,30.05,7.0,WNW,8.1,-,0.02,Rain,Light Rain,290,2013-03-30 22:53:00
7:53 PM,55.9,55.0,97,30.05,4.0,NW,3.5,-,0.09,Rain,Rain,310,2013-03-30 23:53:00
8:53 PM,55.9,55.0,97,30.04,3.0,Calm,Calm,-,0.07,Rain,Rain,0,2013-03-31 00:53:00
9:53 PM,55.0,55.0,100,30.03,5.0,SSE,3.5,-,0.08,Rain,Light Rain,150,2013-03-31 01:53:00
10:53 PM,55.0,55.0,100,30.01,6.0,SE,4.6,-,0.03,Rain,Light Rain,130,2013-03-31 02:53:00
11:12 PM,55.4,55.4,100,30.03,5.0,Calm,Calm,-,N/A,Rain,Light Rain,0,2013-03-31 03:12:00
11:53 PM,55.0,55.0,100,30.00,6.0,Calm,Calm,-,0.00,,Overcast,0,2013-03-31 03:53:00